星链-36269(STARLINK-36269)

导读 | 豆包AI

STARLINK-36269是美国SpaceX星链星座中的一颗卫星,于2026年1月14日发射升空。作为星链网络的组成部分,它主要为全球提供低延迟、高速率的宽带互联网服务,尤其服务偏远地区与网络基础设施薄弱区域,进一步扩充了星链星座的覆盖范围与服务能力。

Basic Information
目录编号:
67472
目录名称:
STARLINK-36269
国际标识:
2026-008AD
轨道中心:
EARTH
卫星名称:
星链-36269
卫星全名:
星链-36269(STARLINK-36269)
卫星状态:
在轨 (已飞行131 天)
发射日期:
2026-01-14 UTC
国别 :
美国 (US)
星等 :
--
Orbit Information
数据来源 国际轨道数据 AOE轨道数据
星历时间 2026-05-25T08:29:57+0800
9小时前
查看轨道信息
2026-05-23T22:00:00+0800
1天前
查看轨道信息
半长轴 6861.091km 6861.229km
偏心率 0.0000845 0.0001309
轨道倾角 43.001° 43.001°
近地点辐角 264.201° 271.624°
升交点赤经 134.347° 142.470°
平近点角 95.875° 94.120°
近地点 482.374km 482.193km
远地点 483.534km 483.991km
周期 94.265分钟 94.268分钟
每日圈数 15.276118 15.275659
Detailed Information
固有亮度:
5
最大亮度:
2.5
卫星平台:
Starlink V1.0
覆盖范围:
全球
运营商:
太空探索技术公司
运营商所在国:
美国
制造商(研发单位):
太空探索技术公司
制造商所在国:
美国
使用方式:
暂无
Satellite Introduction
Starlink 计划是 SpaceX 推出的全球卫星互联网项目,通过发射低轨道卫星,为全球尤其是偏远地区提供高速、低延迟的互联网服务。自 2019 年起,Starlink 已部署数千颗卫星,旨在缩小全球数字鸿沟,推动互联网普及。该项目还为军事、航空等行业提供通信支持,带来广泛经济效益。
2D Orbit Map
3D Orbit Map
Orbit Altitude Analysis Chart
Orbit Inclination Analysis Chart
Orbit Comprehensive Analysis Chart
View Comprehensive Chart